Location: Linz
(48.3300°N, 14.3000°E)
Time: 13:02:55
(UTC+02:00)

BEESAT 3 - Visible Passes

Search period start: 15 October 2018 00:00
Search period end: 25 October 2018 00:00
Orbit: 504 x 510 km, 64.9° (Epoch: 14 October)

Date Brightness Start Highest point End Pass type
(mag) Time Alt. Az. Time Alt. Az. Time Alt. Az.
15 Oct ? 06:52:08 10° SSE 06:54:48 18° ESE 06:57:28 10° ENE visible
16 Oct ? 06:33:49 10° SSE 06:36:23 17° ESE 06:38:59 10° ENE visible
17 Oct ? 06:15:29 10° SSE 06:17:59 17° ESE 06:20:30 10° ENE visible
18 Oct ? 05:57:09 10° SSE 05:59:35 16° ESE 06:02:00 10° ENE visible
19 Oct ? 05:38:50 10° SSE 05:41:10 16° ESE 05:43:30 10° ENE visible
20 Oct ? 05:20:31 10° SSE 05:22:45 15° ESE 05:24:59 10° ENE visible
20 Oct ? 06:55:55 10° SW 06:59:45 66° NW 07:03:37 10° NE visible
21 Oct ? 05:02:13 10° SE 05:04:20 14° ESE 05:06:28 10° ENE visible
21 Oct ? 06:37:27 10° SW 06:41:18 68° NW 06:45:11 10° NE visible
22 Oct ? 04:44:15 11° SE 04:45:55 14° ESE 04:47:56 10° E visible
22 Oct ? 06:19:07 11° SW 06:22:51 71° NW 06:26:45 10° NE visible
23 Oct ? 04:27:20 13° ESE 04:27:29 13° ESE 04:29:23 10° E visible
23 Oct ? 06:02:12 24° SW 06:04:25 73° NW 06:08:18 10° NE visible
24 Oct ? 04:10:12 12° E 04:10:12 12° E 04:10:50 10° E visible
24 Oct ? 05:45:03 50° SW 05:45:58 76° NW 05:49:52 10° NE visible
